BOX52C EDDP-LIMC

Flight info

Callsign BOX52C
Flight time 1h 9m
Altitude 39000
Route GOLAT2S GOLAT T202 TABAT M736 AKOSI DCT BERAS DCT OLPIX DCT EKPEB DCT NAXAV DCT RENTA DCT ATPED DCT LUSIL DCT EVRIP
Aircraft B77L/H-SDE1E2E3FGHIJ2J3J4J5M1RWXY/LB1D1

Departure

Time 2026-02-21 22:45
Airport Leipzig/Halle Airport (EDDP)

Arrival

Time 2026-02-21 23:55
Airport Milan Malpensa International Airport (LIMC)
Time Latitude Longitude Altitude Speed Heading
2026-02-21 22:27 51.40931 12.24990 471 ft 0 kts 266°
2026-02-21 22:36 51.40931 12.24991 471 ft 1 kts 266°
2026-02-21 22:37 51.40932 12.25015 466 ft 3 kts 266°
2026-02-21 22:37 51.40933 12.25047 466 ft 3 kts 266°
2026-02-21 22:37 51.40935 12.25079 468 ft 3 kts 266°
2026-02-21 22:37 51.40936 12.25106 465 ft 2 kts 266°
2026-02-21 22:38 51.40936 12.25133 464 ft 3 kts 289°
2026-02-21 22:38 51.40930 12.25152 463 ft 3 kts 327°
2026-02-21 22:38 51.40915 12.25162 463 ft 3 kts 355°
2026-02-21 22:38 51.40897 12.25163 464 ft 2 kts 356°
2026-02-21 22:39 51.40894 12.25164 464 ft 1 kts 355°
2026-02-21 22:41 51.40913 12.25161 463 ft 7 kts 355°
2026-02-21 22:41 51.40966 12.25154 466 ft 8 kts 355°
2026-02-21 22:41 51.41018 12.25147 469 ft 8 kts 355°
2026-02-21 22:41 51.41070 12.25140 470 ft 8 kts 355°
2026-02-21 22:42 51.41113 12.25178 470 ft 8 kts 56°
2026-02-21 22:42 51.41136 12.25445 476 ft 14 kts 86°
2026-02-21 22:42 51.41138 12.25476 479 ft 0 kts 85°
2026-02-21 22:43 51.41142 12.25560 482 ft 14 kts 81°
2026-02-21 22:43 51.41209 12.25622 480 ft 12 kts
2026-02-21 22:43 51.41296 12.25612 480 ft 12 kts 350°
2026-02-21 22:43 51.41370 12.25601 479 ft 8 kts 354°
2026-02-21 22:44 51.41403 12.25567 474 ft 4 kts 284°
2026-02-21 22:44 51.41401 12.25549 475 ft 0 kts 262°
2026-02-21 22:45 51.41400 12.25542 476 ft 7 kts 261°
2026-02-21 22:45 51.41377 12.25072 477 ft 89 kts 266°
2026-02-21 22:45 51.41303 12.23630 572 ft 159 kts 263°
2026-02-21 22:45 51.41221 12.21846 1528 ft 163 kts 263°
2026-02-21 22:46 51.41147 12.20012 2594 ft 170 kts 264°
2026-02-21 22:46 51.41078 12.18584 3184 ft 185 kts 265°
2026-02-21 22:46 51.40995 12.16322 3908 ft 210 kts 266°
2026-02-21 22:46 51.40922 12.13887 4853 ft 227 kts 266°
2026-02-21 22:47 51.40805 12.11307 5948 ft 237 kts 264°
2026-02-21 22:47 51.40618 12.08696 7146 ft 241 kts 263°
2026-02-21 22:47 51.40433 12.06004 8331 ft 245 kts 264°
2026-02-21 22:47 51.40284 12.03263 9489 ft 251 kts 266°
2026-02-21 22:48 51.40171 12.00427 10543 ft 259 kts 268°
2026-02-21 22:48 51.40078 11.97497 11416 ft 268 kts 266°
2026-02-21 22:48 51.39528 11.94512 11800 ft 304 kts 243°
2026-02-21 22:48 51.38010 11.91951 12354 ft 322 kts 224°
2026-02-21 22:49 51.36290 11.89639 13236 ft 326 kts 220°
2026-02-21 22:49 51.34357 11.87631 14160 ft 339 kts 212°
2026-02-21 22:49 51.32712 11.86407 15114 ft 335 kts 207°
2026-02-21 22:49 51.30708 11.84988 15680 ft 352 kts 210°
2026-02-21 22:50 51.28501 11.83152 16428 ft 358 kts 212°
2026-02-21 22:50 51.26179 11.81471 16917 ft 377 kts 201°
2026-02-21 22:50 51.23611 11.80517 18127 ft 381 kts 193°
2026-02-21 22:50 51.20965 11.80231 19064 ft 388 kts 179°
2026-02-21 22:51 51.15734 11.82639 20629 ft 399 kts 164°
2026-02-21 22:51 51.13101 11.84216 21377 ft 406 kts 163°
2026-02-21 22:51 51.10435 11.85777 22360 ft 409 kts 164°
2026-02-21 22:52 51.07730 11.87220 23286 ft 414 kts 166°
2026-02-21 22:52 51.04931 11.88485 23988 ft 421 kts 169°
2026-02-21 22:52 51.02074 11.89575 24819 ft 422 kts 171°
2026-02-21 22:52 50.99214 11.90587 25840 ft 421 kts 172°
2026-02-21 22:53 50.96351 11.91612 26816 ft 422 kts 171°
2026-02-21 22:53 50.93493 11.92554 27668 ft 418 kts 178°
2026-02-21 22:53 50.90584 11.92328 28039 ft 421 kts 198°
2026-02-21 22:53 50.87948 11.90570 28777 ft 417 kts 213°
2026-02-21 22:54 50.85493 11.87948 29242 ft 423 kts 219°
2026-02-21 22:54 50.83177 11.85104 30333 ft 420 kts 221°
2026-02-21 22:54 50.80970 11.82210 31227 ft 417 kts 222°
2026-02-21 22:54 50.78728 11.79288 31956 ft 420 kts 222°
2026-02-21 22:55 50.76439 11.76336 32425 ft 428 kts 221°
2026-02-21 22:55 50.74080 11.73399 32789 ft 439 kts 220°
2026-02-21 22:55 50.71595 11.70551 33169 ft 442 kts 214°
2026-02-21 22:55 50.68756 11.68588 33749 ft 450 kts 198°
2026-02-21 22:56 50.65633 11.68036 34366 ft 459 kts 182°
2026-02-21 22:56 50.63509 11.68437 34512 ft 466 kts 170°
2026-02-21 22:56 50.61276 11.69362 34847 ft 461 kts 168°
2026-02-21 22:56 50.58156 11.70760 34958 ft 472 kts 167°
2026-02-21 22:57 50.55013 11.72291 35459 ft 473 kts 166°
2026-02-21 22:57 50.51876 11.73840 36008 ft 473 kts 167°
2026-02-21 22:57 50.48724 11.75346 36455 ft 474 kts 167°
2026-02-21 22:57 50.45544 11.76803 36939 ft 475 kts 168°
2026-02-21 22:58 50.42360 11.78214 37458 ft 476 kts 168°
2026-02-21 22:58 50.39174 11.79595 37919 ft 477 kts 169°
2026-02-21 22:58 50.35974 11.80967 38364 ft 478 kts 169°
2026-02-21 22:58 50.32756 11.82341 38864 ft 478 kts 169°
2026-02-21 22:59 50.29542 11.83713 39189 ft 480 kts 169°
2026-02-21 22:59 50.26289 11.85100 39179 ft 487 kts 169°
2026-02-21 22:59 50.19785 11.87884 39184 ft 481 kts 169°
2026-02-21 23:00 50.13374 11.90626 39186 ft 477 kts 169°
2026-02-21 23:00 50.06961 11.93353 39222 ft 478 kts 169°
2026-02-21 23:01 50.00550 11.96071 39231 ft 479 kts 169°
2026-02-21 23:01 49.94104 11.98798 39236 ft 480 kts 169°
2026-02-21 23:02 49.89275 12.00838 39240 ft 479 kts 169°
2026-02-21 23:02 49.82827 12.03553 39220 ft 480 kts 169°
2026-02-21 23:03 49.76374 12.06264 39212 ft 481 kts 169°
2026-02-21 23:03 49.69833 12.07921 39231 ft 474 kts 181°
2026-02-21 23:04 49.63285 12.07685 39226 ft 469 kts 190°
2026-02-21 23:04 49.56824 12.06719 39227 ft 470 kts 190°
2026-02-21 23:05 49.50305 12.05740 39240 ft 472 kts 190°
2026-02-21 23:05 49.43762 12.04802 39269 ft 473 kts 190°
2026-02-21 23:06 49.38272 12.04036 39276 ft 474 kts 189°
2026-02-21 23:06 49.31692 12.03124 39268 ft 475 kts 189°
2026-02-21 23:07 49.25153 12.02220 39273 ft 476 kts 189°
2026-02-21 23:07 49.20181 12.01534 39256 ft 476 kts 189°
2026-02-21 23:08 49.13580 12.00624 39272 ft 477 kts 189°
2026-02-21 23:08 49.06974 11.99715 39273 ft 477 kts 189°
2026-02-21 23:09 49.00348 11.98806 39284 ft 478 kts 189°
2026-02-21 23:09 48.93727 11.97902 39294 ft 478 kts 189°
2026-02-21 23:10 48.87100 11.96998 39312 ft 478 kts 189°
2026-02-21 23:10 48.80463 11.96095 39312 ft 479 kts 189°
2026-02-21 23:11 48.73815 11.95191 39310 ft 480 kts 189°
2026-02-21 23:11 48.67157 11.94290 39316 ft 481 kts 189°
2026-02-21 23:12 48.60493 11.93392 39313 ft 481 kts 189°
2026-02-21 23:12 48.53817 11.92493 39311 ft 482 kts 189°
2026-02-21 23:13 48.47129 11.91595 39319 ft 483 kts 189°
2026-02-21 23:13 48.40428 11.90697 39310 ft 484 kts 189°
2026-02-21 23:14 48.33715 11.89801 39318 ft 485 kts 189°
2026-02-21 23:14 48.26978 11.88903 39314 ft 486 kts 189°
2026-02-21 23:15 48.20239 11.88008 39320 ft 487 kts 189°
2026-02-21 23:15 48.13482 11.87113 39323 ft 488 kts 189°
2026-02-21 23:16 48.06709 11.86218 39339 ft 489 kts 189°
2026-02-21 23:16 47.99917 11.85323 39340 ft 490 kts 189°
2026-02-21 23:17 47.93109 11.84428 39353 ft 491 kts 189°
2026-02-21 23:17 47.86304 11.83536 39354 ft 492 kts 189°
2026-02-21 23:18 47.79477 11.82644 39369 ft 493 kts 189°
2026-02-21 23:18 47.72688 11.81758 39367 ft 494 kts 189°
2026-02-21 23:19 47.65842 11.80867 39385 ft 494 kts 189°
2026-02-21 23:19 47.58983 11.79978 39385 ft 495 kts 189°
2026-02-21 23:20 47.52120 11.79091 39384 ft 495 kts 189°
2026-02-21 23:20 47.45257 11.78205 39392 ft 496 kts 189°
2026-02-21 23:21 47.38382 11.77318 39392 ft 496 kts 189°
2026-02-21 23:21 47.31541 11.76065 39395 ft 495 kts 193°
2026-02-21 23:22 47.24748 11.74415 39385 ft 495 kts 194°
2026-02-21 23:22 47.17933 11.72782 39366 ft 496 kts 193°
2026-02-21 23:23 47.11125 11.71191 39389 ft 496 kts 193°
2026-02-21 23:23 47.04316 11.69528 39358 ft 493 kts 197°
2026-02-21 23:24 46.97827 11.66547 39362 ft 486 kts 208°
2026-02-21 23:24 46.91701 11.62396 39348 ft 484 kts 210°
2026-02-21 23:25 46.85593 11.58238 39340 ft 485 kts 210°
2026-02-21 23:25 46.79459 11.54140 39328 ft 486 kts 209°
2026-02-21 23:26 46.73296 11.50050 39328 ft 486 kts 209°
2026-02-21 23:26 46.67140 11.45966 39346 ft 486 kts 210°
2026-02-21 23:27 46.60981 11.41869 39334 ft 487 kts 209°
2026-02-21 23:27 46.54815 11.37771 39299 ft 488 kts 210°
2026-02-21 23:28 46.48809 11.33297 39314 ft 478 kts 223°
2026-02-21 23:28 46.44358 11.26448 39328 ft 460 kts 243°
2026-02-21 23:29 46.41520 11.18338 39122 ft 455 kts 252°
2026-02-21 23:29 46.38742 11.09950 38352 ft 476 kts 252°
2026-02-21 23:30 46.37278 11.05635 37540 ft 477 kts 251°
2026-02-21 23:30 46.35794 11.01345 36735 ft 475 kts 251°
2026-02-21 23:30 46.34313 10.97088 35968 ft 473 kts 251°
2026-02-21 23:30 46.32834 10.92842 35381 ft 469 kts 251°
2026-02-21 23:31 46.31377 10.88651 34809 ft 465 kts 251°
2026-02-21 23:31 46.29927 10.84482 34235 ft 462 kts 251°
2026-02-21 23:31 46.28488 10.80350 33605 ft 459 kts 251°
2026-02-21 23:31 46.27059 10.76252 33020 ft 455 kts 251°
2026-02-21 23:32 46.25640 10.72191 32480 ft 451 kts 251°
2026-02-21 23:32 46.24231 10.68158 31880 ft 447 kts 251°
2026-02-21 23:32 46.22837 10.64172 31353 ft 444 kts 251°
2026-02-21 23:32 46.21450 10.60212 30775 ft 440 kts 250°
2026-02-21 23:33 46.20071 10.56285 30229 ft 436 kts 250°
2026-02-21 23:33 46.18708 10.52406 29643 ft 432 kts 250°
2026-02-21 23:33 46.17357 10.48560 29050 ft 428 kts 250°
2026-02-21 23:33 46.16011 10.44743 28504 ft 425 kts 250°
2026-02-21 23:34 46.14680 10.40972 27979 ft 420 kts 250°
2026-02-21 23:34 46.13360 10.37242 27426 ft 416 kts 250°
2026-02-21 23:34 46.12047 10.33532 26917 ft 414 kts 250°
2026-02-21 23:34 46.10746 10.29853 26376 ft 411 kts 250°
2026-02-21 23:35 46.09469 10.26250 25883 ft 407 kts 250°
2026-02-21 23:35 46.08187 10.22638 25376 ft 403 kts 250°
2026-02-21 23:35 46.06915 10.19054 24879 ft 400 kts 250°
2026-02-21 23:35 46.05634 10.15453 24401 ft 397 kts 250°
2026-02-21 23:36 46.04376 10.11925 23888 ft 394 kts 250°
2026-02-21 23:36 46.03173 10.08454 23331 ft 391 kts 251°
2026-02-21 23:36 46.01992 10.04948 22843 ft 386 kts 251°
2026-02-21 23:36 46.00835 10.01480 22335 ft 384 kts 251°
2026-02-21 23:37 45.99689 9.98030 21823 ft 381 kts 251°
2026-02-21 23:37 45.98549 9.94615 21383 ft 376 kts 251°
2026-02-21 23:37 45.97419 9.91242 20878 ft 373 kts 251°
2026-02-21 23:37 45.96295 9.87902 20464 ft 370 kts 251°
2026-02-21 23:38 45.95175 9.84582 19960 ft 368 kts 251°
2026-02-21 23:38 45.94059 9.81285 19527 ft 366 kts 251°
2026-02-21 23:38 45.92946 9.77989 19002 ft 368 kts 251°
2026-02-21 23:38 45.91823 9.74669 18567 ft 370 kts 250°
2026-02-21 23:39 45.90702 9.71367 18329 ft 366 kts 250°
2026-02-21 23:39 45.89587 9.68087 17829 ft 367 kts 251°
2026-02-21 23:39 45.88470 9.64805 17328 ft 364 kts 251°
2026-02-21 23:39 45.87364 9.61560 16854 ft 360 kts 251°
2026-02-21 23:40 45.86241 9.58360 16363 ft 359 kts 247°
2026-02-21 23:40 45.84852 9.55366 15890 ft 361 kts 239°
2026-02-21 23:40 45.83220 9.52642 15445 ft 361 kts 231°
2026-02-21 23:40 45.81406 9.50166 15014 ft 359 kts 229°
2026-02-21 23:41 45.79578 9.47749 14550 ft 357 kts 229°
2026-02-21 23:41 45.77755 9.45348 14091 ft 355 kts 229°
2026-02-21 23:41 45.75943 9.42958 13594 ft 353 kts 229°
2026-02-21 23:41 45.74151 9.40587 13053 ft 349 kts 229°
2026-02-21 23:42 45.72381 9.38244 12649 ft 343 kts 229°
2026-02-21 23:42 45.67207 9.31369 11316 ft 334 kts 229°
2026-02-21 23:43 45.65514 9.29121 10891 ft 331 kts 229°
2026-02-21 23:43 45.64417 9.27665 10663 ft 327 kts 229°
2026-02-21 23:43 45.62798 9.25523 10579 ft 314 kts 229°
2026-02-21 23:43 45.61184 9.23390 10436 ft 302 kts 229°
2026-02-21 23:44 45.59672 9.21392 10296 ft 291 kts 229°
2026-02-21 23:44 45.58215 9.19462 9983 ft 287 kts 229°
2026-02-21 23:44 45.56763 9.17536 9656 ft 285 kts 229°
2026-02-21 23:44 45.55307 9.15604 9360 ft 288 kts 229°
2026-02-21 23:45 45.53827 9.13642 9048 ft 292 kts 228°
2026-02-21 23:45 45.52342 9.11680 8723 ft 289 kts 228°
2026-02-21 23:45 45.50877 9.09750 8407 ft 284 kts 227°
2026-02-21 23:45 45.49438 9.07856 8100 ft 279 kts 227°
2026-02-21 23:46 45.48027 9.05999 7785 ft 274 kts 227°
2026-02-21 23:46 45.46643 9.04178 7494 ft 269 kts 227°
2026-02-21 23:46 45.45285 9.02390 7172 ft 265 kts 226°
2026-02-21 23:46 45.43915 9.00585 6691 ft 270 kts 226°
2026-02-21 23:47 45.42540 8.98780 6358 ft 265 kts 225°
2026-02-21 23:47 45.41211 8.97040 6199 ft 254 kts 225°
2026-02-21 23:47 45.39946 8.95385 6089 ft 244 kts 225°
2026-02-21 23:47 45.38883 8.93595 5929 ft 235 kts 248°
2026-02-21 23:48 45.38487 8.91370 5747 ft 233 kts 262°
2026-02-21 23:48 45.38185 8.89071 5518 ft 239 kts 261°
2026-02-21 23:48 45.37871 8.86783 5331 ft 233 kts 260°
2026-02-21 23:48 45.37568 8.84555 5088 ft 224 kts 262°
2026-02-21 23:49 45.37701 8.82442 4847 ft 213 kts 294°
2026-02-21 23:49 45.38657 8.80931 4650 ft 205 kts 330°
2026-02-21 23:49 45.39957 8.80204 4456 ft 200 kts 340°
2026-02-21 23:49 45.41275 8.79568 4255 ft 199 kts 340°
2026-02-21 23:50 45.42590 8.79040 4091 ft 193 kts 344°
2026-02-21 23:50 45.43900 8.78628 3870 ft 192 kts 346°
2026-02-21 23:50 45.45205 8.78257 3673 ft 192 kts 347°
2026-02-21 23:50 45.46516 8.77894 3591 ft 189 kts 347°
2026-02-21 23:51 45.47791 8.77554 3532 ft 184 kts 347°
2026-02-21 23:51 45.49014 8.77260 3594 ft 170 kts 349°
2026-02-21 23:51 45.50122 8.77030 3588 ft 153 kts 348°
2026-02-21 23:51 45.51093 8.76736 3325 ft 142 kts 343°
2026-02-21 23:52 45.52106 8.76441 3151 ft 148 kts 349°
2026-02-21 23:52 45.53087 8.76157 2845 ft 138 kts 345°
2026-02-21 23:52 45.54022 8.75854 2406 ft 137 kts 346°
2026-02-21 23:52 45.54966 8.75603 2245 ft 140 kts 347°
2026-02-21 23:53 45.55929 8.75332 2068 ft 140 kts 349°
2026-02-21 23:53 45.56865 8.75035 1823 ft 136 kts 349°
2026-02-21 23:53 45.57797 8.74777 1644 ft 140 kts 350°
2026-02-21 23:53 45.58755 8.74514 1440 ft 139 kts 348°
2026-02-21 23:54 45.59690 8.74267 1218 ft 136 kts 349°
2026-02-21 23:54 45.60614 8.73998 1007 ft 135 kts 351°
2026-02-21 23:54 45.61230 8.73844 866 ft 136 kts 351°
2026-02-21 23:54 45.62146 8.73597 745 ft 127 kts 351°
2026-02-21 23:55 45.62930 8.73374 740 ft 100 kts 348°
2026-02-21 23:55 45.63493 8.73217 741 ft 63 kts 346°
2026-02-21 23:55 45.63772 8.72991 739 ft 38 kts 311°
2026-02-21 23:55 45.63899 8.72734 740 ft 28 kts 304°
2026-02-21 23:56 45.63949 8.72499 738 ft 25 kts 261°
2026-02-21 23:56 45.63918 8.72253 741 ft 25 kts 266°
2026-02-21 23:56 45.63911 8.72004 740 ft 25 kts 266°
2026-02-21 23:56 45.63818 8.71826 738 ft 25 kts 187°
2026-02-21 23:57 45.63649 8.71865 740 ft 25 kts 168°
2026-02-21 23:57 45.63481 8.71905 740 ft 25 kts 166°
2026-02-21 23:57 45.63315 8.71960 739 ft 25 kts 171°
2026-02-21 23:57 45.63147 8.72003 739 ft 25 kts 168°
2026-02-21 23:58 45.62980 8.72052 739 ft 24 kts 168°
2026-02-21 23:58 45.62813 8.72097 740 ft 24 kts 170°
2026-02-21 23:58 45.62646 8.72146 741 ft 24 kts 168°
2026-02-21 23:58 45.62478 8.72190 738 ft 24 kts 170°
2026-02-21 23:59 45.62311 8.72237 740 ft 24 kts 169°
2026-02-21 23:59 45.62144 8.72283 738 ft 24 kts 169°
2026-02-21 23:59 45.61977 8.72330 740 ft 24 kts 169°
2026-02-21 23:59 45.61810 8.72377 741 ft 24 kts 170°
2026-02-22 00:00 45.61670 8.72412 741 ft 16 kts 170°
2026-02-22 00:00 45.61546 8.72447 740 ft 20 kts 169°
2026-02-22 00:00 45.61419 8.72446 740 ft 15 kts 221°
2026-02-22 00:00 45.61388 8.72301 740 ft 15 kts 258°
2026-02-22 00:01 45.61413 8.72172 741 ft 15 kts 335°
2026-02-22 00:01 45.61514 8.72143 738 ft 14 kts 350°
2026-02-22 00:01 45.61566 8.72123 740 ft 7 kts 323°
2026-02-22 00:01 45.61571 8.72058 739 ft 7 kts 261°
2026-02-22 00:02 45.61563 8.71997 739 ft 1 kts 259°
2026-02-22 00:02 45.61561 8.71984 741 ft 2 kts 259°
2026-02-22 00:02 45.61561 8.71983 741 ft 0 kts 259°
2026-02-22 00:02 45.61563 8.71999 739 ft 0 kts 261°